Location: Newark
(44.3449°N, 4.8694°E)
Time: 18:20:11
(UTC+00:00)

ISS - Visible Passes

Search period start: 29 January 2020 00:00
Search period end: 08 February 2020 00:00
Orbit: 416 x 423 km, 51.6° (Epoch: 30 January)

Date Brightness Start Highest point End Pass type
(mag) Time Alt. Az. Time Alt. Az. Time Alt. Az.
29 Jan -2.1 18:17:45 10° NW 18:20:31 23° N 18:21:02 22° NNE visible
30 Jan -2.1 17:29:57 10° WNW 17:32:46 23° N 17:35:26 11° NE visible
30 Jan -1.3 19:07:13 10° NW 19:08:24 18° NW 19:08:24 18° NW visible
31 Jan -2.4 18:19:37 10° NW 18:22:32 26° N 18:22:50 25° NNE visible
01 Feb -2.2 17:31:57 10° NW 17:34:47 23° N 17:37:17 12° ENE visible
01 Feb -1.6 19:08:47 10° NW 19:10:15 23° NW 19:10:15 23° NW visible
02 Feb -3.1 18:21:14 10° NW 18:24:26 38° NNE 18:24:45 36° NE visible
03 Feb -2.6 17:33:39 10° NW 17:36:42 30° NNE 17:39:20 12° ENE visible
03 Feb -2.0 19:10:21 10° WNW 19:12:18 31° WNW 19:12:18 31° WNW visible
04 Feb -3.9 18:22:44 10° WNW 18:26:07 76° NNE 18:26:59 46° ESE visible
05 Feb -3.5 17:35:07 10° NW 17:38:27 51° NNE 17:41:45 10° ESE visible
05 Feb -1.7 19:12:13 10° W 19:14:47 26° SW 19:14:47 26° SW visible
06 Feb -2.6 18:24:21 10° WNW 18:27:34 42° SW 18:29:47 17° SSE visible
07 Feb -3.4 17:36:36 10° WNW 17:39:59 70° SW 17:43:20 10° SE visible
